Сальвадор

Бразилия     12˚57′00″S   38˚30′00″W
темп.,
°C
ветер,
м/с
пор.,
м/с
влажн.,
%
обл.,
%
осадки,
мм/ч
давл.,
гПа
погр.,
м
16 января, сб
сб1600:00+26˚в6780100 0.4 1012760
03:00+26˚в677881 1.6 1010833
06:00+26˚в787684 0.3 1012834
09:00+27˚в677476 0.4 1013920
12:00+27˚вюв897422 0.6 1013862
15:00+27˚в787411 0.6 1011804
18:00+27˚в810760 0.0 1011918
21:00+27˚в89762 0.0 1013980
17 января, вс
вс1700:00+26˚в78770 0.3 1013986
03:00+26˚в677618 0.8 1012883
06:00+26˚в577318 0.5 1012980
09:00+26˚вюв667514 0.6 1014905
12:00+27˚вюв78730 0.1 1012946
15:00+27˚вюв88700 0.1 1010843
18:00+27˚в79680 0.0 1011986
21:00+26˚в67760 0.0 1013955
18 января, пн
пн1800:00+26˚вюв467515 1.6 1012537
03:00+25˚вюв347851 6.7 1011364
06:00+26˚в237452 3.6 1013517
09:00+26˚в337453 6.1 1014516
12:00+27˚в567091 0.4 1013915
15:00+27˚в777272 0.4 1011871
18:00+27˚вюв67741 0.0 1011888
21:00+27˚в77731 0.0 10131118
19 января, вт
вт1900:00+26˚в67720 0.0 10131003
03:00+26˚в66760 0.1 1012881
06:00+26˚в45730 0.0 1013823
09:00+27˚в23621 0.0 1015976
12:00+27˚юв566638 0.0 1013939
15:00+27˚вюв787355 0.0 1011881
18:00+27˚вюв787371 0.0 1012893
21:00+27˚в787638 0.0 1013971
20 января, ср
ср2000:00+26˚в67755 0.0 1013963
03:00+26˚в45763 0.1 1012802
06:00+26˚в447213 0.1 1014841
09:00+27˚вюв236622 0.1 1015992
12:00+27˚юв56692 0.0 1013792
15:00+27˚юв77711 0.0 1011798
18:00+27˚в787423 0.1 1012894
21:00+26˚в788019 0.2 1014880